Wind_Speed
37 37 37 38 38 39 39 39 40 41 41 42 42 42 41 42 42 42 41 41 41 41 40 40 39 39 39 38 38 38 37 36 36 35 35 35 34 33 33 32 32 31 30
36 37 37 38 38 38 39 40 40 41 42 43 43 43 43 44 44 44 44 44 44 44 44 43 42 42 42 41 41 40 39 39 38 37 37 37 36 35 35 34 34 33 32
37 37 38 38 39 40 40 41 42 42 43 44 44 45 45 46 46 46 47 47 46 46 46 45 45 44 44 43 43 43 42 41 40 40 39 39 38 38 37 36 35 35 34
37 38 39 39 40 40 41 41 42 42 44 44 45 46 46 47 47 47 48 48 48 48 48 48 46 45 45 44 44 44 44 43 43 43 42 41 40 40 39 38 37 37 35
36 37 38 39 39 40 41 41 42 42 42 43 44 45 46 47 47 48 48 48 48 49 50 50 49 48 48 47 46 45 44 44 44 44 43 43 42 41 41 40 40 39 37
37 37 37 38 38 39 40 40 41 43 44 44 44 45 46 47 48 50 50 49 48 49 50 51 52 51 51 51 49 48 46 46 46 46 45 45 44 43 42 42 41 40 39
36 36 37 37 37 38 39 40 41 43 44 45 45 46 47 47 49 49 50 50 50 50 51 52 52 53 53 52 52 51 49 48 48 47 47 45 45 44 44 43 42 42 40
37 37 37 37 38 38 39 40 41 42 43 44 45 46 46 47 48 49 49 49 51 51 51 52 53 54 54 54 54 54 52 51 50 50 49 48 46 45 44 44 43 43 42
37 37 36 36 37 37 38 39 39 40 41 42 43 44 45 46 47 49 50 51 52 52 52 53 53 54 54 53 53 55 54 54 53 52 51 50 48 47 47 46 45 45 45
36 36 37 37 37 37 37 38 39 39 40 40 41 42 43 44 45 46 48 49 50 50 51 51 52 53 54 53 53 53 53 53 54 54 53 52 51 50 49 48 48 47 48
37 37 37 38 38 38 38 39 40 40 41 41 41 42 43 44 45 44 45 46 47 48 48 49 50 51 53 53 52 52 53 54 55 55 55 53 52 52 51 51 50 49 49
37 38 38 38 39 39 40 40 40 41 41 41 41 42 43 44 45 45 45 46 46 48 48 48 49 50 51 53 53 53 52 54 55 56 56 56 55 54 53 53 52 51 51
38 39 39 40 40 41 41 41 41 41 41 41 41 42 42 43 44 44 45 45 45 46 48 49 50 52 52 53 53 53 53 52 53 55 56 57 57 56 55 55 54 52 52
39 40 40 40 41 41 40 40 40 40 40 41 41 41 41 42 42 43 44 44 45 46 47 48 50 51 52 52 52 53 53 53 53 54 54 55 56 56 56 56 55 54 52
40 40 40 40 40 40 40 40 39 40 40 40 41 41 42 42 43 44 44 44 45 46 47 47 48 49 50 51 52 53 53 54 54 55 55 56 57 57 58 59 57 56 55
41 41 40 41 41 40 40 39 40 40 40 41 41 42 43 43 44 44 45 46 46 47 46 47 48 49 50 51 52 54 54 54 55 55 57 57 58 59 59 59 59 58 58
41 41 41 40 40 40 40 40 40 41 41 42 42 43 44 44 45 46 46 46 47 47 47 48 49 50 51 52 53 54 54 55 55 55 56 57 58 58 59 59 59 59 59
40 40 40 40 39 40 41 41 42 42 42 43 44 44 44 44 44 45 46 46 47 47 48 49 50 51 52 53 54 54 55 56 56 56 57 58 59 60 60 60 60 60 60
39 39 39 40 40 41 42 43 43 43 43 43 44 44 44 44 44 45 46 47 47 48 48 49 51 52 53 54 54 55 56 57 58 58 58 59 60 61 62 62 62 62 61
39 39 40 41 41 42 42 42 43 42 43 43 43 44 44 45 45 46 46 47 48 49 49 50 50 52 53 54 54 55 56 57 59 59 60 61 61 62 63 64 63 63 62
39 40 40 40 40 41 42 42 42 43 43 43 44 44 44 45 45 46 46 47 48 49 49 50 50 51 52 54 55 55 56 56 58 59 59 60 61 62 62 64 65 65 64
39 39 40 40 41 41 41 42 42 43 42 43 43 43 44 44 45 46 46 47 47 48 49 50 50 51 51 53 54 55 56 56 56 57 58 58 59 61 62 63 64 64 64
39 39 39 39 40 40 41 41 42 42 42 42 43 43 44 44 44 45 45 46 47 47 48 49 49 50 51 52 53 54 55 55 54 55 56 56 57 58 60 62 63 63 63
39 39 38 39 39 40 41 41 41 41 42 42 43 43 43 43 43 43 43 43 44 45 46 47 48 50 51 53 53 53 53 54 54 55 55 54 55 56 58 60 61 62 62
38 38 39 39 39 40 40 40 41 41 42 42 43 43 43 43 43 43 42 42 43 44 45 47 48 48 50 51 51 52 52 53 53 53 55 55 54 55 55 56 58 60 61
39 39 39 39 40 40 40 40 40 41 41 42 42 43 43 43 43 43 42 43 43 44 46 47 47 47 47 48 49 50 50 50 51 51 52 53 53 54 53 54 56 58 60
Wind_Direction
276 276 276 275 274 273 272 271 270 269 268 267 267 266 266 266 266 267 267 267 267 267 267 267 267 266 266 265 265 264 264 263 262 262 262 262 263 263 264 265 266 267 269
277 277 277 276 275 274 273 272 271 270 269 268 267 267 267 266 266 266 266 266 266 266 266 265 265 265 265 264 264 264 264 263 262 261 261 261 262 262 263 264 265 266 267
277 277 277 276 275 275 275 274 273 271 270 268 267 267 267 266 266 266 266 265 265 265 265 265 264 264 263 263 263 262 262 262 261 261 260 261 261 262 263 263 264 265 265
279 279 279 278 276 276 275 275 275 273 271 270 269 268 267 267 267 267 266 265 264 264 264 264 264 263 262 263 262 262 261 261 261 260 260 260 261 261 262 262 262 263 264
281 281 282 281 280 278 277 276 275 274 273 271 270 269 269 268 268 268 267 267 266 265 263 263 262 261 262 262 261 261 261 261 260 259 260 259 260 260 261 261 261 261 262
281 282 283 283 281 280 279 278 277 275 274 273 271 270 270 269 268 267 266 266 266 265 265 263 262 261 261 261 260 261 260 260 259 259 259 258 258 259 261 260 260 260 261
283 283 283 282 283 282 281 280 279 278 275 273 273 272 271 270 268 268 266 265 265 265 265 265 263 262 261 261 259 259 259 258 258 258 258 258 257 257 259 259 259 259 260
284 285 285 284 283 283 283 283 282 280 278 276 275 275 273 270 269 268 267 265 265 265 265 265 263 262 261 260 259 258 258 256 256 257 257 257 257 257 258 257 258 258 258
286 286 285 285 286 285 285 285 285 284 281 279 277 276 274 271 269 269 268 267 266 266 265 265 263 260 259 259 258 258 256 255 255 256 256 256 256 258 258 258 258 257 257
286 285 285 286 286 287 286 286 286 285 284 282 280 278 277 274 271 270 269 268 267 267 266 266 265 263 260 258 257 258 256 255 254 255 255 255 255 256 258 258 258 258 257
286 286 286 287 286 287 288 287 286 285 284 283 281 279 278 276 273 272 271 270 269 268 267 265 264 263 262 259 258 258 257 257 256 255 255 255 255 255 256 258 258 258 257
286 287 287 287 287 288 289 288 288 287 286 284 282 280 279 277 273 271 272 272 270 269 268 267 265 263 263 262 261 259 259 259 256 255 255 255 255 255 255 256 257 256 256
287 288 288 287 288 289 289 289 289 288 287 285 284 282 281 278 276 273 272 272 271 269 269 268 267 265 263 264 263 262 262 261 258 256 256 256 254 254 254 254 254 255 254
288 288 288 288 289 290 290 290 289 288 288 286 285 284 282 281 277 274 274 273 271 269 268 268 267 266 265 265 264 264 263 262 260 258 257 255 255 254 253 252 252 253 253
288 288 288 289 289 290 290 291 290 289 288 288 286 285 284 282 280 276 276 275 273 271 269 268 267 265 264 264 264 264 263 263 262 259 257 256 255 255 254 253 252 252 252
288 288 288 289 289 290 290 291 291 291 290 289 288 286 285 283 281 278 276 276 275 272 270 267 266 265 264 264 264 264 264 263 262 261 259 257 255 255 255 255 253 252 252
288 288 288 288 289 290 291 291 291 291 290 290 289 288 286 284 282 279 277 276 276 273 271 268 267 266 266 265 265 265 264 264 263 261 259 259 258 257 255 255 254 253 252
288 288 288 288 289 290 291 292 292 292 291 290 290 289 288 286 283 281 279 278 277 275 272 270 268 267 267 266 266 266 265 264 262 261 260 259 258 257 256 255 254 253 253
289 288 288 289 289 290 291 292 293 293 292 291 290 290 289 287 285 283 281 279 277 276 274 272 270 269 268 268 267 267 266 265 262 261 261 260 258 257 256 255 253 253 252
289 289 290 290 290 291 293 294 294 294 294 293 292 291 289 288 287 285 283 281 279 277 276 275 273 271 270 269 268 268 267 266 264 263 262 261 259 258 257 256 255 254 252
290 290 291 292 292 293 294 295 294 294 294 294 294 292 291 290 289 287 285 283 282 280 278 277 276 274 272 271 269 269 268 267 266 265 263 262 260 259 257 257 256 255 254
291 291 291 292 293 294 295 295 295 295 294 295 295 294 293 292 291 290 288 286 284 282 280 278 277 276 275 274 272 270 269 268 267 265 264 262 260 259 257 256 256 255 254
292 292 292 293 294 295 296 296 296 296 296 296 296 295 295 294 293 292 290 288 286 284 283 281 279 278 277 275 274 272 271 269 267 266 264 263 261 260 257 256 255 254 253
292 292 292 293 294 295 295 296 296 296 296 297 296 296 296 296 294 293 293 291 289 288 286 284 283 281 279 278 276 274 272 270 268 267 265 264 263 261 260 257 255 253 252
292 292 292 293 294 295 295 296 297 297 297 298 297 297 297 297 296 294 293 292 291 290 289 288 286 284 282 279 278 276 274 272 269 268 266 265 263 262 260 257 255 254 253
292 292 292 293 294 295 295 297 298 297 298 298 298 298 298 298 297 296 295 293 292 292 291 290 288 285 283 282 280 278 276 274 271 268 267 265 263 262 259 258 256 254 252
Height
5803 5802 5801 5801 5800 5799 5799 5799 5798 5798 5798 5798 5799 5799 5799 5799 5799 5799 5800 5800 5801 5801 5801 5802 5803 5803 5804 5804 5804 5805 5806 5806 5807 5807 5808 5808 5808 5809 5809 5810 5810 5810 5811
5795 5794 5793 5792 5791 5790 5790 5789 5789 5789 5788 5788 5789 5789 5789 5789 5789 5789 5790 5790 5791 5791 5792 5793 5793 5794 5794 5795 5796 5796 5797 5798 5799 5799 5800 5800 5801 5801 5802 5802 5803 5803 5804
5787 5786 5785 5784 5782 5781 5780 5780 5779 5778 5778 5778 5778 5778 5779 5779 5778 5778 5779 5779 5780 5781 5781 5782 5783 5784 5784 5785 5786 5787 5788 5789 5790 5790 5791 5792 5792 5793 5794 5795 5795 5796 5796
5779 5777 5776 5775 5773 5772 5771 5770 5769 5768 5768 5768 5768 5768 5768 5768 5768 5767 5767 5768 5768 5769 5770 5771 5772 5773 5774 5775 5776 5777 5777 5779 5780 5781 5782 5783 5783 5784 5785 5786 5787 5788 5789
5770 5769 5767 5766 5764 5763 5761 5760 5759 5758 5757 5757 5757 5756 5756 5756 5756 5756 5756 5756 5756 5757 5758 5759 5760 5761 5762 5764 5765 5766 5767 5768 5769 5770 5772 5773 5774 5775 5776 5777 5778 5779 5780
5762 5761 5759 5757 5755 5753 5752 5750 5749 5747 5747 5746 5746 5745 5745 5744 5744 5744 5744 5744 5745 5745 5746 5747 5747 5749 5750 5752 5753 5754 5756 5757 5758 5759 5761 5762 5764 5765 5766 5767 5769 5770 5771
5754 5752 5750 5748 5746 5744 5742 5740 5738 5737 5736 5735 5734 5734 5733 5732 5732 5731 5731 5732 5732 5733 5733 5733 5734 5735 5737 5738 5740 5742 5744 5745 5747 5748 5749 5751 5752 5754 5756 5757 5759 5760 5762
5746 5744 5742 5740 5737 5735 5733 5731 5729 5727 5725 5724 5723 5722 5722 5721 5720 5719 5719 5719 5719 5720 5720 5720 5721 5722 5723 5724 5726 5728 5730 5732 5734 5736 5737 5739 5741 5743 5745 5747 5748 5750 5751
5737 5735 5733 5731 5729 5726 5724 5721 5719 5717 5715 5713 5711 5710 5710 5710 5709 5708 5707 5706 5706 5706 5707 5706 5707 5707 5708 5710 5712 5714 5716 5719 5721 5723 5725 5727 5729 5731 5734 5735 5737 5739 5740
5729 5727 5724 5722 5720 5717 5715 5712 5709 5707 5705 5703 5701 5699 5698 5697 5697 5697 5696 5694 5693 5693 5693 5693 5693 5693 5694 5696 5698 5700 5702 5704 5706 5709 5711 5714 5716 5719 5721 5723 5725 5727 5729
5720 5718 5716 5713 5711 5708 5705 5702 5700 5697 5695 5693 5691 5689 5687 5685 5684 5684 5684 5683 5682 5681 5680 5680 5680 5680 5681 5682 5684 5686 5688 5690 5692 5695 5697 5700 5702 5705 5708 5710 5713 5715 5717
5712 5709 5706 5704 5701 5698 5695 5692 5689 5687 5684 5682 5679 5677 5675 5674 5672 5672 5672 5671 5670 5669 5668 5667 5667 5668 5668 5669 5670 5672 5674 5676 5678 5680 5683 5686 5689 5691 5694 5697 5699 5702 5704
5703 5700 5697 5694 5691 5688 5685 5682 5679 5676 5673 5671 5668 5666 5664 5661 5660 5660 5659 5658 5657 5657 5656 5655 5655 5655 5655 5656 5657 5659 5660 5662 5663 5666 5668 5671 5674 5677 5680 5683 5686 5688 5691
5693 5690 5687 5684 5681 5678 5675 5671 5668 5665 5662 5659 5657 5654 5652 5649 5648 5647 5647 5646 5645 5645 5644 5643 5642 5642 5642 5643 5644 5645 5646 5648 5649 5651 5653 5656 5659 5662 5665 5668 5671 5674 5677
5684 5681 5678 5675 5671 5668 5665 5661 5658 5655 5651 5648 5646 5643 5640 5638 5636 5635 5633 5632 5632 5631 5631 5630 5629 5628 5628 5629 5630 5630 5632 5633 5634 5636 5638 5641 5644 5647 5650 5653 5656 5659 5662
5674 5671 5667 5664 5661 5658 5654 5651 5648 5644 5641 5637 5634 5631 5628 5626 5624 5622 5620 5619 5618 5617 5617 5616 5614 5614 5614 5615 5615 5616 5617 5618 5619 5620 5622 5625 5628 5631 5633 5637 5640 5643 5646
5663 5660 5657 5654 5651 5647 5644 5640 5637 5633 5629 5626 5622 5619 5616 5614 5611 5609 5607 5605 5604 5603 5602 5602 5600 5600 5600 5600 5601 5601 5602 5603 5603 5604 5606 5608 5611 5613 5616 5619 5623 5627 5630
5653 5650 5646 5643 5640 5637 5633 5630 5626 5622 5618 5614 5611 5607 5604 5601 5598 5596 5594 5592 5590 5588 5588 5587 5586 5585 5585 5585 5586 5586 5586 5587 5587 5588 5589 5591 5593 5596 5599 5602 5605 5609 5613
5642 5639 5636 5633 5630 5626 5622 5619 5615 5611 5606 5602 5599 5595 5592 5589 5586 5583 5581 5578 5576 5575 5573 5572 5571 5570 5570 5570 5570 5570 5570 5570 5570 5571 5572 5574 5575 5577 5581 5584 5587 5591 5596
5632 5629 5625 5622 5619 5615 5611 5607 5603 5599 5595 5591 5587 5583 5579 5576 5572 5569 5567 5564 5562 5560 5558 5557 5556 5555 5554 5553 5553 5554 5554 5553 5553 5553 5554 5555 5557 5559 5562 5565 5569 5572 5576
5621 5618 5615 5611 5607 5604 5600 5596 5592 5588 5583 5579 5575 5571 5567 5563 5559 5556 5553 5550 5548 5546 5544 5542 5541 5539 5538 5537 5536 5536 5536 5536 5536 5535 5536 5537 5538 5540 5542 5545 5548 5552 5557
5611 5607 5604 5600 5597 5593 5589 5585 5581 5576 5572 5568 5563 5559 5555 5551 5547 5543 5539 5536 5533 5531 5529 5527 5525 5523 5522 5520 5519 5518 5518 5518 5519 5519 5518 5519 5519 5521 5523 5526 5529 5533 5537
5600 5597 5593 5589 5586 5582 5578 5574 5569 5565 5561 5556 5552 5547 5543 5538 5534 5530 5526 5522 5519 5516 5514 5512 5509 5507 5505 5504 5503 5502 5500 5500 5500 5499 5499 5501 5501 5502 5504 5507 5510 5513 5517
5589 5586 5582 5579 5575 5571 5567 5563 5558 5554 5549 5545 5540 5536 5531 5526 5522 5518 5513 5509 5505 5502 5499 5497 5494 5492 5489 5486 5485 5484 5482 5482 5482 5481 5480 5482 5483 5484 5486 5488 5490 5494 5497
5579 5575 5572 5568 5564 5560 5556 5551 5547 5543 5538 5533 5529 5524 5519 5515 5510 5506 5502 5497 5493 5489 5485 5482 5479 5475 5473 5470 5468 5467 5466 5465 5465 5464 5463 5464 5465 5466 5468 5469 5472 5474 5477
5568 5564 5561 5557 5553 5549 5545 5540 5536 5531 5527 5522 5517 5513 5508 5503 5498 5493 5489 5485 5481 5477 5472 5468 5464 5461 5458 5455 5452 5450 5449 5448 5447 5447 5446 5446 5447 5447 5450 5452 5453 5455 5458